Location: Chacón
(10.5789°N, 66.9317°W)
Time: 22:32:51
(UTC+00:00)

BREEZE-M DEB (TANK) - Pass Details

Date: 13 August 2024
Orbit: 331 x 16054 km, 49.4° (Epoch: 16 September)

Event Time Altitude Azimuth Distance (km) Brightness Sun altitude
Rises 01:51:10 0° 248° (WSW) 17,510 10.3 -42.8°
Reaches altitude 10° 02:31:54 10° 277° (W) 9,595 8.9 -50.9°
Maximum altitude 02:43:10 12° 298° (WNW) 6,693 8.2 -53.0°
Drops below altitude 10° 02:49:33 10° 321° (NW) 5,221 7.7 -54.2°
Sets 02:55:38 0° 353° (N) 4,538 7.4 -55.2°
